Change the Weather History Date:

Thursday, March 21, 2013

  Actual Average Record
Temperature  
Mean Temperature 32 °F -  
Max Temperature 37 °F - - ()
Min Temperature 28 °F - - ()
Degree Days  
Heating Degree Days 32    
Moisture  
Dew Point 20 °F    
Average Humidity 62    
Maximum Humidity 93    
Minimum Humidity 29    
Precipitation  
Precipitation 0.00 in - - ()
Sea Level Pressure  
Sea Level Pressure 29.76 in    
Wind  
Wind Speed 18 mph (West)    
Max Wind Speed 41 mph    
Max Gust Speed 56 mph    
Visibility 7 miles    
Events Fog , Snow , Thunderstorm    
T = Trace of Precipitation, MM = Missing Value Source: NWS Daily Summary

Daily Weather History Graph

Daily Weather History Graph

Search for Another Location

Airport or City:

Trip Planner

Search our weather history database for the weather conditions in past years. The results will help you decide how hot, cold, wet, or windy it might be!

Date:

Astronomy

Mar. 21, 2013 Rise Set
Actual Time 7:06 AM MDT 7:18 PM MDT
Civil Twilight 6:39 AM MDT 7:44 PM MDT
Nautical Twilight 6:08 AM MDT 8:15 PM MDT
Astronomical Twilight 5:37 AM MDT 8:47 PM MDT
Moon 1:53 PM MDT (3/21) 3:26 AM MDT (3/21)
Length of Visible Light 13h 04m
Length of Day
12h 11m
Waxing Gibbous, 69% of the Moon is Illuminated
Mar 21
Waxing Gibbous
Mar 27
Full
Apr 2
Last Quarter
Apr 10
New
Apr 18
First Quarter

Hourly Weather History & Observations

Time (MDT) Temp. Windchill Dew Point Humidity Pressure Visibility Wind Dir Wind Speed Gust Speed Precip Events Conditions
12:15 AM 35.6 °F 23.0 °F 19.4 °F 52% 29.89 in 10.0 mi West 27.6 mph 46.0 mph N/A   Scattered Clouds
12:36 AM 35.6 °F 23.4 °F 21.2 °F 56% 29.88 in 10.0 mi West 25.3 mph 39.1 mph N/A   Scattered Clouds
12:56 AM 35.6 °F 24.2 °F 21.2 °F 56% 29.87 in 10.0 mi WNW 21.9 mph 38.0 mph N/A   Scattered Clouds
1:15 AM 35.6 °F 23.7 °F 21.2 °F 56% 29.87 in 10.0 mi West 24.2 mph 41.4 mph N/A   Clear
1:36 AM 35.6 °F 23.4 °F 21.2 °F 56% 29.86 in 10.0 mi WNW 25.3 mph 48.3 mph N/A   Clear
1:56 AM 35.6 °F 24.2 °F 21.2 °F 56% 29.86 in 10.0 mi WNW 21.9 mph 36.8 mph N/A   Clear
2:16 AM 35.6 °F 23.2 °F 21.2 °F 56% 29.86 in 10.0 mi West 26.5 mph 40.3 mph N/A   Clear
2:36 AM 33.8 °F 21.0 °F 21.2 °F 60% 29.86 in 10.0 mi West 25.3 mph 41.4 mph N/A   Clear
2:55 AM 33.8 °F 21.3 °F 21.2 °F 60% 29.85 in 10.0 mi West 24.2 mph 41.4 mph N/A   Scattered Clouds
3:16 AM 35.6 °F 23.7 °F 21.2 °F 56% 29.83 in 10.0 mi WSW 24.2 mph 39.1 mph N/A   Clear
3:35 AM 33.8 °F 22.8 °F 21.2 °F 60% 29.83 in 10.0 mi West 18.4 mph 31.1 mph N/A   Clear
3:56 AM 33.8 °F 25.3 °F 21.2 °F 60% 29.82 in 10.0 mi West 11.5 mph 26.5 mph N/A   Scattered Clouds
4:16 AM 33.8 °F 23.9 °F 23.0 °F 65% 29.80 in 10.0 mi WNW 15.0 mph 20.7 mph N/A   Scattered Clouds
4:36 AM 33.8 °F 25.8 °F 23.0 °F 65% 29.79 in 10.0 mi West 10.4 mph 18.4 mph N/A   Clear
4:56 AM 32.0 °F 25.6 °F 21.2 °F 64% 29.79 in 10.0 mi SW 6.9 mph - N/A   Scattered Clouds
5:16 AM 33.8 °F 29.6 °F 21.2 °F 60% 29.78 in 10.0 mi SW 4.6 mph - N/A   Clear
5:35 AM 33.8 °F 29.6 °F 21.2 °F 60% 29.78 in 10.0 mi NNW 4.6 mph 16.1 mph N/A   Clear
5:56 AM 33.8 °F 25.3 °F 26.6 °F 75% 29.78 in 2.5 mi West 11.5 mph - N/A Snow Light Snow
6:16 AM 32.0 °F 27.5 °F 28.4 °F 87% 29.77 in 1.0 mi NW 4.6 mph - N/A Snow Light Snow
6:36 AM 32.0 °F 26.4 °F 28.4 °F 87% 29.77 in 2.5 mi West 5.8 mph - N/A Snow Light Snow
6:55 AM 32.0 °F 28.7 °F 28.4 °F 87% 29.76 in 7.0 mi SSW 3.5 mph - N/A   Overcast
7:16 AM 32.0 °F - 28.4 °F 87% 29.75 in 3.0 mi Calm Calm - N/A Snow Light Snow
7:36 AM 30.2 °F 23.4 °F 28.4 °F 93% 29.74 in 0.2 mi SSE 6.9 mph - N/A Fog Light Freezing Fog
7:56 AM 32.0 °F - 28.4 °F 87% 29.74 in 5.0 mi Calm Calm - N/A Snow Light Snow
8:16 AM 32.0 °F 22.5 °F 28.4 °F 87% 29.74 in 4.0 mi West 12.7 mph 20.7 mph N/A Snow Light Snow
8:36 AM 33.8 °F 29.6 °F 28.4 °F 81% 29.74 in 5.0 mi NNW 4.6 mph 19.6 mph N/A Snow Light Snow
8:56 AM 32.0 °F 26.4 °F 28.4 °F 87% 29.75 in 1.0 mi NNE 5.8 mph - N/A Snow Light Snow
9:16 AM 32.0 °F 24.8 °F 28.4 °F 87% 29.75 in 5.0 mi SW 8.1 mph 18.4 mph N/A   Overcast
9:36 AM 35.6 °F 28.6 °F 23.0 °F 60% 29.74 in 10.0 mi NW 9.2 mph 21.9 mph N/A   Scattered Clouds
9:56 AM 37.4 °F 31.4 °F 19.4 °F 48% 29.73 in 10.0 mi WNW 8.1 mph 19.6 mph N/A   Clear
10:16 AM 35.6 °F 29.9 °F 23.0 °F 60% 29.74 in 7.0 mi WNW 6.9 mph - N/A   Mostly Cloudy
10:36 AM 33.8 °F 26.4 °F 23.0 °F 65% 29.74 in 4.0 mi West 9.2 mph 19.6 mph N/A Snow Light Snow
10:56 AM 32.0 °F 20.5 °F 26.6 °F 80% 29.73 in 0.5 mi West 18.4 mph 25.3 mph N/A Snow , Thunderstorm Thunderstorms and Snow
11:15 AM 32.0 °F 21.6 °F 26.6 °F 80% 29.72 in - West 15.0 mph 21.9 mph N/A   Overcast
11:36 AM 32.0 °F 26.4 °F 28.4 °F 87% 29.70 in - NNE 5.8 mph - N/A   Overcast
11:56 AM 33.8 °F 30.8 °F 28.4 °F 81% 29.69 in 2.5 mi NW 3.5 mph - N/A Snow Light Snow
12:16 PM 32.0 °F 22.5 °F 26.6 °F 80% 29.71 in 1.8 mi WSW 12.7 mph 21.9 mph N/A Snow Light Snow
12:36 PM 30.2 °F 23.4 °F 28.4 °F 93% 29.70 in 0.2 mi North 6.9 mph 19.6 mph N/A Snow , Thunderstorm Heavy Thunderstorms and Snow
12:56 PM 30.2 °F 20.8 °F 28.4 °F 93% 29.70 in 0.2 mi NW 11.5 mph 19.6 mph N/A Snow Snow
1:16 PM 32.0 °F 20.1 °F 24.8 °F 75% 29.70 in 2.5 mi West 19.6 mph 29.9 mph N/A Snow Light Snow
1:36 PM 32.0 °F 20.1 °F 23.0 °F 69% 29.69 in 2.0 mi West 19.6 mph 32.2 mph N/A Snow Light Snow
1:56 PM 33.8 °F 20.3 °F 21.2 °F 60% 29.68 in 3.0 mi West 28.8 mph 40.3 mph N/A   Haze
2:16 PM 32.0 °F 22.1 °F 21.2 °F 64% 29.70 in 3.0 mi NW 13.8 mph 27.6 mph N/A Snow Light Snow
2:36 PM 32.0 °F 23.0 °F 23.0 °F 69% 29.70 in 1.0 mi WNW 11.5 mph 23.0 mph N/A Snow Light Snow
2:56 PM 32.0 °F 24.8 °F 23.0 °F 69% 29.71 in 3.0 mi West 8.1 mph 20.7 mph N/A Snow Light Snow
3:16 PM 30.2 °F 18.9 °F 23.0 °F 75% 29.71 in 0.8 mi West 16.1 mph 28.8 mph N/A Snow Snow
3:35 PM 30.2 °F 23.4 °F 23.0 °F 75% 29.72 in 0.8 mi WNW 6.9 mph 24.2 mph N/A Snow Light Snow
3:56 PM 32.0 °F 28.7 °F 23.0 °F 69% 29.71 in 4.0 mi ENE 3.5 mph - N/A Snow Light Snow
4:15 PM 32.0 °F 27.5 °F 19.4 °F 60% 29.72 in 10.0 mi NW 4.6 mph 21.9 mph N/A   Mostly Cloudy
4:36 PM 32.0 °F 27.5 °F 19.4 °F 60% 29.72 in 10.0 mi WNW 4.6 mph 23.0 mph N/A   Scattered Clouds
4:56 PM 32.0 °F 22.1 °F 19.4 °F 60% 29.73 in 10.0 mi West 13.8 mph 25.3 mph N/A   Mostly Cloudy
5:16 PM 32.0 °F 21.2 °F 19.4 °F 60% 29.73 in 3.0 mi West 16.1 mph 27.6 mph N/A Snow Light Snow
5:36 PM 32.0 °F 21.2 °F 14.0 °F 48% 29.74 in 10.0 mi West 16.1 mph 32.2 mph N/A   Scattered Clouds
5:56 PM 30.2 °F 17.1 °F 12.2 °F 47% 29.76 in 10.0 mi West 21.9 mph 39.1 mph N/A   Clear
6:15 PM 30.2 °F 23.4 °F 14.0 °F 51% 29.76 in 10.0 mi WNW 6.9 mph 26.5 mph N/A   Clear
6:36 PM 30.2 °F 17.8 °F 12.2 °F 47% 29.75 in 10.0 mi WNW 19.6 mph 32.2 mph N/A   Clear
6:56 PM 28.4 °F 15.8 °F 19.4 °F 69% 29.75 in 1.2 mi WNW 18.4 mph 35.7 mph N/A Snow Light Snow
7:16 PM 30.2 °F 15.4 °F 12.2 °F 47% 29.74 in 7.0 mi WNW 28.8 mph 47.2 mph N/A   Mostly Cloudy
7:36 PM 28.4 °F 12.5 °F 14.0 °F 55% 29.74 in 10.0 mi West 31.1 mph 54.1 mph N/A   Scattered Clouds
7:56 PM 28.4 °F 12.3 °F 14.0 °F 55% 29.75 in 10.0 mi West 32.2 mph 52.9 mph N/A   Scattered Clouds
8:16 PM 28.4 °F 12.7 °F 12.2 °F 51% 29.75 in 10.0 mi West 29.9 mph 52.9 mph N/A   Clear
8:36 PM 28.4 °F 12.5 °F 8.6 °F 43% 29.76 in 10.0 mi West 31.1 mph 49.5 mph N/A   Clear
8:56 PM 28.4 °F 10.6 °F 6.8 °F 40% 29.76 in 10.0 mi WNW 41.4 mph 56.4 mph N/A   Clear
9:16 PM 28.4 °F 11.4 °F 5.0 °F 37% 29.77 in 10.0 mi West 36.8 mph 54.1 mph N/A   Clear
9:36 PM 30.2 °F 14.1 °F 5.0 °F 34% 29.78 in 10.0 mi West 35.7 mph 51.8 mph N/A   Clear
9:55 PM 28.4 °F 12.5 °F 5.0 °F 37% 29.78 in 10.0 mi West 31.1 mph 48.3 mph N/A   Clear
10:16 PM 28.4 °F 12.3 °F 5.0 °F 37% 29.78 in 10.0 mi West 32.2 mph 47.2 mph N/A   Clear
10:36 PM 28.4 °F 13.0 °F 3.2 °F 34% 29.78 in 10.0 mi West 28.8 mph 42.6 mph N/A   Clear
10:56 PM 28.4 °F 12.5 °F 3.2 °F 34% 29.78 in 10.0 mi West 31.1 mph 44.9 mph N/A   Clear
11:16 PM 28.4 °F 13.3 °F 1.4 °F 31% 29.78 in 10.0 mi West 27.6 mph 43.7 mph N/A   Clear
11:36 PM 28.4 °F 14.1 °F 1.4 °F 31% 29.78 in 10.0 mi West 24.2 mph 35.7 mph N/A   Clear
11:56 PM 28.4 °F 13.8 °F -0.4 °F 29% 29.80 in 10.0 mi West 25.3 mph 35.7 mph N/A   Clear